Location: Centerville
(32.8776°N, 96.6203°W)
Time: 05:40:05
(UTC+00:00)

Resurs 01 Rocket - Pass Details

Date: 17 June 2021
Orbit: 635 x 643 km, 97.9° (Epoch: 29 July)

Event Time Altitude Azimuth Distance (km) Brightness Sun altitude
Exits shadow 03:33:53 26° 199° (SSW) 1,255 2.8 -20.2°
Maximum altitude 03:36:03 49° 260° (W) 825 2.3 -20.5°
Drops below altitude 10° 03:40:20 10° 336° (NNW) 2,024 5.3 -21.1°
Sets 03:42:36 0° 342° (NNW) 2,936 6.2 -21.4°
